Regional Weather Roundup
Issued by NWS

Home | Current Version | Previous Version | Text Only | Print | Product List | Glossary On
Versions: 1 2 3 4 5 6 7 8 9 10 11 12 13 14 15 16 17 18 19 20 21 22 23 24 25 26 27 28 29 30 31 32 33 34 35 36 37 38 39 40 41 42 43 44 45 46 47 48 49 50
000
ASCA42 TJSJ 030510
RWRPR
PUERTO RICO/U.S. VIRGIN ISLANDS HOURLY WEATHER ROUNDUP
NATIONAL WEATHER SERVICE SAN JUAN PR
100 AM AST THU SEP 03 2015

PRZ001-004-030600-
PUERTO RICO

CITY           SKY/WX    TMP DP  RH WIND       PRES   REMARKS
SAN JUAN LMM   CLEAR     82  75  78 CALM      29.97S
PONCE          PTCLDY    79  75  89 CALM      29.94F
AGUADILLA      CLEAR     79  75  89 CALM      29.98F
CEIBA          PTCLDY    79  77  94 CALM      29.99F
$$

PRZ006-007-030600-
U.S. VIRGIN ISLANDS

CITY           SKY/WX    TMP DP  RH WIND       PRES   REMARKS
CHARLOTTE AMA  PTCLDY    82  77  83 NE3       29.97S HX  91
CHRISTIANSTED  PTCLDY    79  75  89 N5        29.98F
$$

HOURLY WEATHER ROUNDUP FOR THE NEWS MEDIA

CITY           SKY/WX    TMP DP  RH WIND       PRES   REMARKS
ORLANDO        CLEAR     80  76  87 S3        30.01F
NEW YORK       PTCLDY    75  72  90 S7        29.89F
NEWARK         CLEAR     77  71  82 SW5       29.88F
CHICAGO        MOCLDY    79  67  66 SW6       29.97S
HARTFORD       CLEAR     69  65  86 SW3       29.86F
BOSTON         CLEAR     74  65  73 SW7       29.85F
DALLAS         PTCLDY    84  66  54 SE9       29.96S
PHILADELPHIA   CLEAR     77  70  79 W7        29.91F
LOS ANGELES    PTCLDY    67  61  81 SW7       29.93R
WASHINGTON DC  CLEAR     71  68  90 CALM      29.96S


USA.gov is the U.S. government's official web portal to all federal, state and local government web resources and services.